{"data":{"norad_id":56030,"intl_designator":"2023-042AW","name":"STARLINK-5781","alt_names":[],"object_type":"PAYLOAD","status":"ACTIVE","operator":null,"country":"US","launch_date":"2023-03-24","launch_site_code":"AFETR","launch_vehicle":null,"mission":null,"orbit_class":"UNKNOWN","rcs_meters":null,"size_class":null,"mass_kg":null,"dimensions":null,"purposes":["comms"],"wikipedia_slug":null,"has_3d_model":false,"image_url":null,"decayed_at":null,"tle_current":{"epoch":"2026-05-24T17:15:11.363328Z","epoch_age_seconds":106240,"freshness":"FRESH","line1":"1 56030U 23042AW  26144.71888152 -.00000233  00000+0  10764-5 0  9993","line2":"2 56030  43.0057 335.8054 0001891 270.7142  89.3493 15.27575720174666","mean_motion":15.2757572,"eccentricity":0.0001891,"inclination_deg":43.0057,"raan_deg":335.8054,"arg_perigee_deg":270.7142,"mean_anomaly_deg":89.3493,"bstar":1.0764e-6,"rev_number":17466,"period_min":94.267012832595,"perigee_km":481.76445921505,"apogee_km":484.35936464354,"semimajor_km":6861.1989119293,"source":"CELESTRAK","updated_at":"2026-05-25T13:38:17.950544Z"}}}